CAPE
0 0 0 1 1 0 0 0 0 0 0 0 0 0 0 0 0 0 0 0 0 0 0 0 0 0 0 0 0 0 0 0 0 0 0 0 0 0 0 0 0 0 0
1 1 1 1 0 0 0 0 0 0 0 0 0 0 0 0 0 0 0 0 0 0 0 0 0 0 0 0 0 0 0 0 0 0 0 0 0 0 0 0 0 0 0
0 0 1 1 0 0 0 0 0 0 0 0 0 0 0 0 0 0 0 0 0 0 0 0 0 0 0 0 0 0 0 0 0 0 0 0 0 0 0 0 0 0 0
0 0 0 0 0 0 0 0 0 0 0 0 0 0 0 0 0 0 0 0 0 0 0 0 0 0 0 0 0 0 0 0 0 0 0 0 0 0 0 0 0 0 0
0 0 0 0 0 0 0 0 0 0 0 0 0 0 0 0 0 0 0 0 0 0 0 0 0 0 0 0 0 0 0 0 0 0 0 0 0 0 0 0 0 0 0
0 0 0 0 0 0 0 0 0 0 0 0 0 0 0 0 0 0 0 0 0 0 0 0 0 0 0 0 0 0 0 0 0 0 0 0 0 0 0 0 0 0 0
0 0 0 0 0 1 0 0 0 0 0 0 0 0 0 0 0 0 0 0 0 0 0 0 0 0 0 0 0 0 0 0 0 0 0 0 0 0 0 0 0 0 0
0 0 0 0 0 0 0 0 0 0 0 0 0 0 0 0 0 0 0 0 0 0 0 0 0 0 0 0 0 0 0 0 0 0 0 0 0 0 0 0 0 0 0
3 0 0 0 0 0 0 0 0 0 0 0 0 0 0 0 0 0 0 0 0 0 0 0 0 0 0 0 0 0 0 0 0 0 0 0 0 0 0 0 0 0 0
3 2 2 1 0 0 0 0 0 0 0 0 0 0 0 0 0 0 0 0 0 0 0 0 0 0 0 0 0 0 0 0 0 0 0 0 0 0 0 0 0 0 0
21 32 40 8 13 5 0 0 0 0 0 0 0 0 0 0 0 0 0 0 0 0 0 0 0 0 0 0 0 0 0 0 0 0 0 0 0 0 0 0 0 0 0
14 12 30 26 6 4 2 0 0 0 0 0 0 0 0 0 0 0 0 0 0 0 0 0 0 0 0 0 0 0 0 0 0 0 0 0 0 0 0 0 0 0 0
7 11 14 27 12 1 0 0 0 0 0 0 0 0 0 0 0 0 0 0 0 0 0 0 0 0 0 0 0 0 0 0 0 0 0 0 0 0 0 0 0 0 0
10 6 0 0 0 0 0 0 0 0 0 0 0 0 0 0 0 0 0 0 0 0 0 0 0 0 0 0 0 0 0 0 0 0 0 0 0 0 0 0 0 0 0
0 0 0 0 0 0 0 0 0 0 0 0 0 0 0 0 0 0 0 0 0 0 0 0 0 0 0 0 0 0 0 0 0 0 0 0 0 0 0 0 0 0 0
0 0 0 0 0 0 0 0 0 0 0 0 0 0 0 0 0 0 0 0 0 0 0 0 0 0 0 0 0 0 0 0 0 0 0 0 0 0 0 0 0 0 0
0 0 0 0 0 0 0 0 0 0 0 0 0 0 0 0 0 0 0 0 0 0 0 0 0 0 0 0 0 0 0 0 0 0 0 0 0 0 0 0 0 0 0
0 0 0 0 0 0 0 0 0 0 0 0 0 0 0 0 0 0 0 0 0 0 0 0 0 0 0 0 0 0 0 0 0 0 0 0 0 0 0 0 0 0 0
0 0 0 0 0 0 0 0 0 0 0 0 0 0 0 0 0 0 0 0 0 0 0 0 0 0 0 0 0 0 0 0 0 0 0 0 0 0 0 0 0 0 0
0 0 0 0 0 0 0 0 0 0 0 0 0 0 0 0 0 0 0 0 0 0 0 0 0 0 0 0 0 0 0 0 0 0 0 0 0 0 0 0 0 0 0
0 0 0 0 0 0 0 0 0 0 0 0 0 0 0 0 0 0 0 0 0 0 0 0 0 0 0 0 0 0 0 0 0 0 0 0 0 0 0 0 0 0 0
0 0 0 1 0 0 0 1 0 0 0 0 0 0 0 0 0 0 0 0 0 0 0 0 0 0 0 0 0 0 0 0 0 0 0 0 0 0 0 0 0 0 0
0 0 0 0 0 3 7 0 0 0 0 0 0 0 0 0 0 0 0 0 0 0 0 0 0 0 0 0 0 0 1 0 0 0 0 0 0 0 0 0 0 0 0
0 0 0 0 0 0 10 4 0 0 0 0 0 0 0 0 0 0 0 1 1 1 1 2 3 4 3 2 2 0 0 0 0 0 1 0 0 0 0 0 0 0 0
0 0 0 0 0 0 9 0 0 0 0 0 0 0 1 1 0 1 0 1 1 1 0 0 1 0 0 1 2 1 0 0 1 0 0 0 0 0 0 0 0 0 0
0 0 0 0 0 0 0 0 0 0 0 0 2 3 2 0 2 2 1 2 1 1 1 1 2 2 2 0 1 1 1 0 0 0 0 0 0 0 0 0 0 0 0
CIN
0 0 0 0 0 0 0 0 0 0 0 0 0 0 0 0 0 0 0 0 0 0 0 0 0 0 0 0 0 0 0 0 0 0 0 0 0 0 0 0 0 0 0
0 0 0 0 0 0 0 0 0 0 0 0 0 0 0 0 0 0 0 0 0 0 0 0 0 0 0 0 0 0 0 0 0 0 0 0 0 0 0 0 0 0 0
0 0 0 0 0 0 0 0 0 0 0 0 0 0 0 0 0 0 0 0 0 0 0 0 0 0 0 0 0 0 0 0 0 0 0 0 0 0 0 0 0 0 0
0 0 0 0 0 0 0 0 0 0 0 0 0 0 0 0 0 0 0 0 0 0 0 0 0 0 0 0 0 0 0 0 0 0 0 0 0 0 0 0 0 0 0
0 0 0 0 0 0 0 0 0 0 0 0 0 0 0 0 0 0 0 0 0 0 0 0 0 0 0 0 0 0 0 0 0 0 0 0 0 0 0 0 0 0 0
0 0 0 0 0 0 0 0 0 0 0 0 0 0 0 0 0 0 0 0 0 0 0 0 0 0 0 0 0 0 0 0 0 0 0 0 0 0 0 0 0 0 0
0 0 0 0 0 -14 0 0 0 0 0 0 0 0 0 0 0 0 0 0 0 0 0 0 0 0 0 0 0 0 0 0 0 0 0 0 0 0 0 0 0 0 0
0 0 0 0 0 0 -13 0 0 0 0 0 0 0 0 0 0 0 0 0 0 0 0 0 0 0 0 0 0 0 0 0 0 0 0 0 0 0 0 0 0 0 0
-14 -20 -8 0 0 0 0 0 0 0 0 0 0 0 0 0 0 0 0 0 0 0 0 0 0 0 0 0 0 0 0 0 0 0 0 0 0 0 0 0 0 0 0
-4 -13 -30 -13 0 0 0 0 0 0 0 0 0 0 0 0 0 0 0 0 0 0 0 0 0 0 0 0 0 0 0 0 0 0 0 0 0 0 0 0 0 0 0
-15 -22 -28 -40 -34 -40 0 0 0 0 0 0 0 0 0 0 0 0 0 0 0 0 0 0 0 0 0 0 0 0 0 0 0 0 0 0 0 0 0 0 0 0 0
-10 -25 -28 -34 -36 -37 -46 0 0 0 0 0 0 0 0 0 0 0 0 0 0 0 0 0 0 0 0 0 0 0 0 0 0 0 0 0 0 0 0 0 0 0 0
-59 -52 -51 -47 -48 -32 0 0 0 0 0 0 0 0 0 0 0 0 0 0 0 0 0 0 0 0 0 0 0 0 0 0 0 0 0 0 0 0 0 0 0 0 0
-43 -34 -16 0 0 0 0 0 0 0 0 0 0 0 0 0 0 0 0 0 0 0 0 0 0 0 0 0 0 0 0 0 0 0 0 0 0 0 0 0 0 0 0
0 0 0 0 0 0 0 0 0 0 0 0 0 0 0 0 0 0 0 0 0 0 0 0 0 0 0 0 0 0 0 0 0 0 0 0 0 0 0 0 0 0 0
0 0 0 0 0 0 0 0 0 0 0 0 0 0 0 0 0 0 0 0 0 0 0 0 0 0 0 0 0 0 0 0 0 0 0 0 0 0 0 0 0 0 0
0 0 0 0 0 0 0 0 0 0 0 0 0 0 0 0 0 0 0 0 0 0 0 0 0 0 0 0 0 0 0 0 0 0 0 0 0 0 0 0 0 0 0
0 0 0 0 0 0 0 0 0 0 0 0 0 0 0 0 0 0 0 0 0 0 0 0 0 0 0 0 0 0 0 0 0 0 0 0 0 0 0 0 0 0 0
0 0 0 0 0 0 0 0 0 0 0 0 0 0 0 0 0 0 0 0 0 0 0 0 0 0 0 0 0 0 0 0 0 0 0 0 0 0 0 0 0 0 0
0 0 0 0 0 0 0 0 0 0 0 0 0 0 0 0 0 0 0 0 0 0 0 0 0 0 0 0 0 0 0 0 0 0 0 0 0 0 0 0 0 0 0
0 0 0 0 0 0 0 0 0 0 0 0 0 0 0 0 0 0 0 0 0 0 0 0 0 0 0 0 0 0 0 0 0 0 0 0 0 0 0 0 0 0 0
0 0 0 -19 0 -10 0 -63 0 0 0 0 0 0 0 0 0 0 0 0 0 0 0 0 0 0 0 0 0 0 0 0 0 0 0 0 0 0 0 0 0 0 0
0 0 0 0 0 -81 -89 -4 0 0 0 0 0 0 0 0 0 0 0 0 0 0 0 0 0 0 0 0 0 0 0 0 0 0 0 0 0 0 0 0 0 0 0
0 0 0 0 0 -42 -82 -45 0 0 0 0 0 0 0 0 0 0 0 0 0 0 0 0 0 0 0 0 0 0 0 0 0 0 0 0 0 0 0 0 0 0 0
0 0 0 -61 0 -28 -79 -6 0 0 0 0 0 0 0 0 0 0 -1 0 0 0 0 0 0 -1 0 0 0 0 0 -1 0 -1 0 0 0 0 0 0 0 0 0
0 0 0 0 0 0 0 0 0 0 0 0 0 0 0 0 0 0 0 0 0 0 0 0 0 0 0 0 0 0 0 0 0 0 0 0 0 0 0 0 0 0 0
Wind_Speed
17 17 18 13 13 6 8 6 13 7 7 11 4 10 6 6 4 4 7 8 9 10 11 11 12 12 13 13 12 13 15 16 16 17 19 21 23 25 27 28 28 29 29
15 13 13 8 7 5 7 9 8 8 7 8 5 6 5 5 4 4 6 7 8 8 9 10 11 12 13 13 13 14 15 16 15 18 19 22 24 26 28 30 30 30 30
13 14 12 11 9 6 5 6 8 7 7 7 3 2 1 2 4 5 5 5 7 8 9 10 11 12 12 13 14 15 16 17 18 20 22 23 26 28 30 31 33 34 33
12 12 10 10 10 10 8 6 5 5 5 4 3 2 3 3 3 3 4 6 8 10 11 11 11 12 13 13 14 16 17 19 20 22 25 27 29 30 31 35 36 35 37
11 11 12 11 9 8 9 10 9 5 4 4 5 4 3 3 3 2 4 7 9 10 11 12 13 14 15 14 15 16 17 20 21 23 26 27 30 32 34 33 37 38 38
11 12 13 13 12 9 7 6 6 6 5 5 4 5 4 4 4 4 5 8 10 12 13 13 15 16 15 14 15 16 18 21 24 25 27 30 32 33 33 37 40 41 44
13 13 13 12 10 9 6 6 5 4 4 4 3 6 7 7 6 6 6 9 11 13 14 15 16 16 16 16 16 18 21 22 24 27 31 31 32 30 33 37 37 40 44
14 12 11 11 10 9 8 5 4 4 5 5 7 8 9 9 10 10 10 11 13 15 15 15 15 17 18 19 22 25 26 27 26 25 25 27 27 30 32 35 37 41 42
10 10 9 8 8 7 7 7 8 8 9 10 11 10 10 11 10 11 12 12 14 15 15 16 17 20 23 24 23 25 26 26 23 24 24 24 24 27 28 31 37 43 50
9 9 8 8 7 7 6 7 9 9 9 8 9 10 12 13 12 11 12 12 15 16 19 19 19 19 20 19 18 19 21 17 16 16 15 16 19 19 21 24 30 39 45
12 11 11 7 7 7 7 7 8 8 10 11 12 12 12 12 12 12 11 12 14 16 16 17 17 13 13 12 11 13 11 11 14 17 19 19 19 19 23 25 27 29 37
22 21 19 11 11 9 8 11 12 12 12 13 13 15 14 12 11 13 14 12 14 13 13 15 13 10 9 10 12 10 8 11 15 18 20 20 22 23 24 27 27 28 29
23 23 19 13 9 9 8 10 11 12 12 13 12 15 17 15 14 14 13 13 10 9 10 11 10 9 7 7 7 9 13 14 16 18 20 21 22 24 27 29 27 29 30
20 13 6 5 5 9 20 11 9 9 11 14 14 16 20 22 20 15 7 8 8 8 7 7 7 8 8 9 13 13 15 16 18 20 21 23 24 25 27 29 29 31 33
15 14 14 13 12 7 6 7 10 16 17 22 21 20 21 20 17 4 4 6 6 7 10 10 11 11 13 14 16 17 18 18 20 21 22 23 25 26 28 28 26 31 32
9 8 8 8 8 13 17 24 25 25 23 23 21 18 15 11 5 5 3 3 5 10 12 11 12 13 15 16 16 17 17 19 20 22 24 24 26 29 29 27 26 30 32
10 9 7 8 9 21 25 22 23 26 25 24 21 17 9 5 5 3 3 3 5 8 10 10 11 13 14 16 17 18 20 21 23 24 23 25 26 27 28 27 29 30 33
8 10 7 8 14 19 22 28 29 29 29 28 19 6 3 1 1 2 4 9 12 11 12 13 14 15 15 17 18 19 21 23 24 26 26 27 26 26 28 28 29 30 38
8 9 8 8 11 13 5 15 24 26 25 22 21 14 7 5 7 7 9 12 13 14 14 16 19 21 23 23 24 24 24 24 24 27 29 28 27 25 27 27 29 30 40
13 16 14 14 8 9 15 18 19 18 19 20 20 18 20 17 14 14 15 16 17 18 21 24 25 26 26 27 27 29 29 29 30 27 28 29 28 25 25 26 30 35 46
9 10 13 11 8 9 9 12 20 23 20 23 25 23 22 19 21 22 24 23 22 22 23 26 29 30 30 30 32 31 32 32 29 27 29 28 26 25 25 26 31 40 48
9 8 8 9 10 9 11 12 16 20 23 23 26 26 24 23 25 26 26 27 26 27 28 29 30 31 32 33 35 33 32 28 25 27 26 25 23 24 23 28 37 44 45
11 10 10 10 10 11 12 12 14 15 19 22 24 25 26 26 27 28 29 30 30 31 31 31 32 33 33 33 30 28 26 25 21 19 20 22 23 24 26 31 40 42 41
13 13 13 12 11 11 11 12 12 15 18 21 21 22 24 27 29 30 31 32 32 31 30 31 31 33 32 33 31 28 21 17 14 16 19 20 23 23 26 35 39 39 37
15 15 16 15 14 13 13 14 17 19 18 19 20 21 23 25 27 27 28 31 31 30 32 31 29 28 29 29 26 19 16 16 17 15 18 19 20 25 32 36 37 36 32
20 23 22 20 16 16 14 15 13 14 17 18 18 18 20 21 24 26 28 29 28 27 27 27 26 27 28 26 23 20 18 16 15 15 15 18 24 30 34 34 33 31 30
Wind_Direction
323 315 324 313 287 321 275 290 283 286 276 255 261 261 263 251 278 312 313 318 326 326 332 340 342 344 343 343 340 331 325 320 310 314 317 320 321 323 324 327 326 325 324
317 326 317 342 14 4 300 286 298 298 298 278 266 262 275 266 308 325 322 326 332 334 339 346 351 351 349 346 346 341 338 334 326 319 320 319 318 321 321 321 322 323 320
321 312 318 316 333 338 342 329 315 308 314 282 279 275 261 337 322 329 340 338 333 336 339 340 341 345 347 344 341 336 333 332 330 323 321 321 319 320 320 320 319 318 318
340 331 332 330 331 316 337 340 328 346 352 346 343 358 47 23 0 355 345 337 335 340 342 342 341 342 342 340 335 332 330 328 326 322 320 317 316 316 316 316 316 317 315
350 347 350 354 344 332 330 328 333 344 22 355 340 9 30 21 353 348 2 343 335 336 338 338 338 338 334 332 331 330 329 327 326 323 321 321 319 317 315 317 315 316 316
350 350 354 350 342 348 327 333 343 342 339 31 331 335 329 331 343 355 342 338 337 334 334 338 337 339 343 342 336 332 330 328 326 324 322 317 317 316 317 316 315 313 311
348 350 355 1 6 12 5 334 345 336 341 1 9 310 305 311 347 347 333 335 333 330 329 332 334 336 337 336 335 331 328 326 324 323 321 320 320 323 323 320 319 315 311
332 341 354 12 6 349 332 345 356 359 323 321 309 303 301 316 324 327 326 324 323 324 326 331 331 330 330 329 325 323 324 325 326 328 326 326 326 325 323 322 321 318 315
340 337 354 1 356 8 331 313 299 299 295 295 298 300 308 312 324 324 325 326 326 326 329 331 330 326 325 326 325 325 326 328 332 333 333 333 333 332 332 331 326 323 317
6 17 11 16 29 358 353 334 305 309 313 324 322 311 311 313 321 328 330 330 326 325 326 328 329 332 336 340 341 341 339 351 357 354 351 347 344 346 343 338 336 330 326
315 325 327 2 13 351 341 336 335 329 321 314 311 312 318 325 327 331 338 337 336 333 336 338 346 357 1 6 6 0 359 2 352 345 343 343 344 345 342 341 339 337 332
265 269 269 306 302 306 318 303 304 301 308 312 310 311 323 336 340 335 337 344 343 346 349 348 358 14 14 8 358 357 355 349 343 341 341 341 341 340 341 339 339 338 335
254 242 263 294 312 312 318 305 309 315 317 318 328 317 307 321 331 336 348 353 13 22 8 9 16 14 10 6 360 352 349 344 339 340 339 338 338 337 337 337 338 337 337
177 122 311 340 351 295 241 304 335 341 331 313 314 312 276 236 218 183 77 33 22 23 32 21 8 2 356 348 347 343 342 341 339 337 337 336 336 337 338 339 338 340 338
141 125 123 120 121 93 70 71 112 166 180 209 214 214 219 219 203 100 49 16 22 15 1 358 353 350 343 341 337 335 336 336 335 334 333 334 334 335 336 339 339 341 339
125 119 124 120 118 137 149 196 214 215 216 210 212 200 188 177 90 61 58 35 15 351 348 347 342 339 337 337 336 334 333 332 333 333 332 332 332 332 334 338 340 340 340
154 147 133 135 140 169 191 186 200 237 230 221 205 188 164 115 63 67 89 31 356 350 338 340 335 335 333 335 332 329 326 327 329 328 328 329 330 331 333 336 338 341 341
151 159 150 151 166 176 189 210 243 255 262 269 250 176 177 167 106 24 357 345 335 327 322 320 321 323 321 321 322 320 318 321 322 324 326 327 330 331 332 334 338 341 340
171 172 174 175 177 182 288 295 283 285 291 298 306 325 327 308 322 326 328 321 316 314 311 312 314 315 316 315 314 313 313 312 314 318 322 323 326 329 329 333 337 340 338
190 193 192 191 201 278 287 291 295 299 300 299 304 313 317 319 317 317 315 311 311 311 314 314 315 315 314 314 314 312 308 307 308 310 316 318 320 325 328 333 336 338 330
209 206 203 208 222 231 249 284 293 295 298 298 298 305 316 315 314 317 318 316 313 312 312 314 315 316 316 315 315 313 311 308 303 305 311 313 316 321 326 332 334 330 317
236 234 238 233 237 236 241 275 290 296 298 299 299 303 309 312 312 313 315 316 317 317 317 316 316 316 316 317 317 316 315 313 308 304 308 311 317 321 328 331 326 314 309
255 247 234 237 260 262 256 266 285 292 299 300 301 304 307 310 313 316 319 320 321 321 322 321 321 320 320 319 318 317 315 314 312 309 311 313 316 319 327 325 309 302 301
258 265 265 259 267 272 265 273 282 295 302 306 308 310 312 314 316 317 319 321 322 323 326 327 326 325 327 327 324 322 325 328 328 321 317 315 316 322 326 314 298 297 293
269 265 273 271 270 267 269 281 294 298 302 307 309 312 315 318 320 324 327 325 327 330 331 334 334 333 335 336 340 351 350 343 336 333 324 321 320 321 315 299 291 291 287
281 281 284 286 280 282 280 283 284 295 302 306 311 316 321 324 327 330 332 332 336 340 344 346 343 342 340 344 350 352 350 349 344 341 338 328 319 311 297 286 285 285 283